IRIDIUM 21

Last updated on Wed Nov 29 2017 00:19:03 GMT+0000 (Coordinated Universal Time)

1 25778U 99032B 17332.49303255 -.00000016 00000-0 -12836-4 0 9992 2 25778 86.3955 155.3345 0001802 83.8483 276.2918 14.34220641971669
UTC large
Height (km)
Speed (km/s)
/
Latitude / Longitude
Inclination (degrees)
Orbital Period (minutes)
Azimuth
Elevation
Range (km)
Doppler Factor

Next 0 passes for location: London (51.5072 / 0.1276)

Sorry there are no passes over London.